TimeMDT,TemperatureF,Dew PointF,Humidity,Sea Level PressureIn,VisibilityMPH,Wind Direction,Wind SpeedMPH,Gust SpeedMPH,PrecipitationIn,Events,Conditions,WindDirDegrees,DateUTC
12:53 AM,54.0,25.0,33,29.91,10.0,North,4.6,-,N/A,,Clear,350,2013-08-07 06:53:00
1:53 AM,48.9,24.1,38,29.92,10.0,ESE,3.5,-,N/A,,Clear,120,2013-08-07 07:53:00
2:53 AM,46.0,25.0,44,29.92,10.0,ENE,8.1,-,N/A,,Clear,70,2013-08-07 08:53:00
3:53 AM,46.0,28.0,50,29.93,10.0,ENE,8.1,-,N/A,,Clear,70,2013-08-07 09:53:00
4:53 AM,39.9,27.0,60,29.97,10.0,North,4.6,-,N/A,,Clear,350,2013-08-07 10:53:00
5:53 AM,43.0,26.1,51,29.96,10.0,NNW,9.2,-,N/A,,Clear,340,2013-08-07 11:53:00
6:53 AM,39.9,27.0,60,29.98,10.0,Calm,Calm,-,N/A,,Clear,0,2013-08-07 12:53:00
7:53 AM,55.0,28.0,35,29.94,10.0,NNE,3.5,-,N/A,,Clear,20,2013-08-07 13:53:00
8:53 AM,60.1,28.9,31,29.97,10.0,East,9.2,-,N/A,,Clear,80,2013-08-07 14:53:00
9:53 AM,66.0,32.0,28,29.97,10.0,Variable,5.8,-,N/A,,Clear,0,2013-08-07 15:53:00
10:53 AM,71.1,35.1,27,29.94,10.0,SSE,8.1,-,N/A,,Clear,150,2013-08-07 16:53:00
11:53 AM,75.0,30.0,19,29.93,10.0,Variable,3.5,-,N/A,,Clear,0,2013-08-07 17:53:00
12:53 PM,80.1,19.0,10,29.88,10.0,West,9.2,-,N/A,,Clear,280,2013-08-07 18:53:00
1:53 PM,82.9,21.0,10,29.86,10.0,East,10.4,-,N/A,,Clear,80,2013-08-07 19:53:00
2:53 PM,86.0,6.1,5,29.85,10.0,NW,10.4,24.2,N/A,,Clear,320,2013-08-07 20:53:00
3:53 PM,84.9,10.0,6,29.84,10.0,NNW,17.3,26.5,N/A,,Clear,330,2013-08-07 21:53:00
4:53 PM,84.0,12.0,7,29.85,10.0,NNW,11.5,25.3,N/A,,Clear,340,2013-08-07 22:53:00
5:53 PM,84.0,19.9,9,29.84,10.0,NNW,18.4,31.1,N/A,,Clear,340,2013-08-07 23:53:00
6:53 PM,80.1,17.1,9,29.87,10.0,NNW,17.3,24.2,N/A,,Clear,340,2013-08-08 00:53:00
7:53 PM,77.0,18.0,11,29.83,10.0,NNW,10.4,-,N/A,,Clear,340,2013-08-08 01:53:00
8:53 PM,66.9,14.0,13,29.86,10.0,NW,9.2,-,N/A,,Clear,320,2013-08-08 02:53:00
9:53 PM,61.0,16.0,17,29.88,10.0,NNW,11.5,-,N/A,,Clear,340,2013-08-08 03:53:00
10:53 PM,59.0,14.0,17,29.87,10.0,North,11.5,-,N/A,,Clear,350,2013-08-08 04:53:00
11:53 PM,57.0,17.1,21,29.88,10.0,NNW,11.5,-,N/A,,Clear,340,2013-08-08 05:53:00